Simultaneous Nadir Overpasses (SNOs) Predictions

Prediction of SNOs between METOP-B and TERRA Satellite Orbit:

Table of predicted SNOs for the next 14.0 days since TLE Epoch: 12/28/2013
Index Date (METOP-B) Time (METOP-B) Lat,Lon (METOP-B) SZA (METOP-B ) Date (TERRA) Time (TERRA) Lat,Lon (TERRA) SZA (TERRA ) Distance(km) Time Diff (sec)
1 12/30/2013 18:37:03 -81.28, 127.34 73.12 12/30/2013 18:37:54 -81.28, 127.26 73.11 1.30 51
2 12/30/2013 19:27:42 81.29, -64.86 106.94 12/30/2013 19:27:20 81.29, -64.98 106.91 1.98 22
3 01/02/2014 14:11:26 -81.28,-166.25 73.38 01/02/2014 14:12:09 -81.29,-166.20 73.35 0.89 43
4 01/02/2014 15:02:05 81.29, 1.56 106.68 01/02/2014 15:01:35 81.29, 1.53 106.66 0.56 30
5 01/05/2014 09:45:49 -81.28, -99.89 73.71 01/05/2014 09:46:24 -81.28, -99.83 73.69 1.00 35
6 01/05/2014 10:36:28 81.29, 67.93 106.35 01/05/2014 10:35:50 81.28, 67.86 106.32 1.29 38
7 01/08/2014 05:20:10 -81.29, -33.20 74.05 01/08/2014 05:20:37 -81.29, -33.26 74.05 1.03 27
8 01/08/2014 06:10:50 81.29, 134.25 105.96 01/08/2014 06:10:03 81.29, 134.40 105.96 2.63 47
9 01/11/2014 00:54:33 -81.28, 33.04 74.51 01/11/2014 00:54:51 -81.29, 33.13 74.49 1.68 18




NCC Satellite Simultaneous Nadir Overpasses (SNOs) Prediction Service
